Bierset, Belgium

5:51 PM CEST on August 27, 2016 (GMT +0200)
Liege

Weather History for EBLG - July, 2013

Change the Weather History Date:

Sunday, July 7, 2013

  Actual Average Record
Temperature  
Mean Temperature 68 °F -  
Max Temperature 79 °F 70 °F 82 °F (2015)
Min Temperature 58 °F 55 °F 46 °F (1996)
Cooling Degree Days 4    
Growing Degree Days 18 (Base 50)    
Moisture  
Dew Point 57 °F    
Average Humidity 66    
Maximum Humidity 94    
Minimum Humidity 35    
Precipitation  
Precipitation 0.00 in - - ()
Sea Level Pressure  
Sea Level Pressure 30.40 in    
Wind  
Wind Speed 6 mph ()    
Max Wind Speed 13 mph    
Max Gust Speed -    
Visibility 8.4 miles    
Events      
Averages and records for this station are not official NWS values.
T = Trace of Precipitation, MM = Missing Value Source: Averaged Metar Reports

Daily Weather History Graph

Daily Weather History Graph

Search for Another Location

Airport or City:

Trip Planner

Search our weather history database for the weather conditions in past years. The results will help you decide how hot, cold, wet, or windy it might be!

Date:

Astronomy

Jul. 07, 2013 Rise Set
Actual Time 5:34 AM CEST 9:51 PM CEST
Civil Twilight 4:49 AM CEST 10:35 PM CEST
Nautical Twilight 3:44 AM CEST 11:40 PM CEST
Astronomical Twilight 2:15 AM CEST 1:10 AM CEST
Moon 5:04 AM CEST (7/7) 8:55 PM CEST (7/7)
Length of Visible Light 17h 45m
Length of Day
16h 16m
Waning Crescent, 1% of the Moon is Illuminated
Jul 7
Waning Crescent
Jul 8
New
Jul 16
First Quarter
Jul 22
Full
Jul 29
Last Quarter

Hourly Weather History & Observations

Time (CEST) Temp. Dew Point Humidity Pressure Visibility Wind Dir Wind Speed Gust Speed Precip Events Conditions
12:20 AM 64.4 °F 57.2 °F 77% 30.39 in - NE 6.9 mph - N/A   Clear
12:50 AM 64.4 °F 57.2 °F 77% 30.39 in - ENE 8.1 mph - N/A   Clear
1:20 AM 64.4 °F 57.2 °F 77% 30.39 in - NE 3.5 mph - N/A   Clear
1:50 AM 62.6 °F 57.2 °F 82% 30.39 in - Variable 1.2 mph - N/A   Clear
2:00 AM 63 °F 57 °F 75% 30.41 in 12 mi Calm Calm - -   Clear
2:20 AM 64.4 °F 57.2 °F 77% 30.39 in - NE 2.3 mph - N/A   Clear
2:50 AM 62.6 °F 57.2 °F 82% 30.39 in - North 3.5 mph - N/A   Clear
3:20 AM 60.8 °F 55.4 °F 82% 30.39 in - NNE 2.3 mph - N/A   Clear
3:50 AM 60.8 °F 55.4 °F 82% 30.39 in - NE 3.5 mph - N/A   Clear
4:20 AM 60.8 °F 55.4 °F 82% 30.39 in - NNE 3.5 mph - N/A   Clear
4:50 AM 59.0 °F 55.4 °F 88% 30.39 in - North 3.5 mph - N/A   Clear
5:00 AM 60 °F 56 °F 83% 30.40 in 12 mi North 2.2 mph - -   Clear
5:20 AM 59.0 °F 55.4 °F 88% 30.39 in 5.6 mi NE 2.3 mph - N/A   Unknown
5:50 AM 60.8 °F 55.4 °F 82% 30.39 in 5.6 mi Variable 2.3 mph - N/A   Unknown
6:20 AM 59.0 °F 55.4 °F 88% 30.39 in 5.6 mi NNE 2.3 mph - N/A   Unknown
6:50 AM 59.0 °F 57.2 °F 94% 30.39 in 5.0 mi North 2.3 mph - N/A   Unknown
7:20 AM 60.8 °F 57.2 °F 88% 30.39 in 5.6 mi Variable 2.3 mph - N/A   Unknown
7:50 AM 62.6 °F 59.0 °F 88% 30.42 in 5.6 mi NNE 3.5 mph - N/A   Unknown
8:00 AM 62 °F 58 °F 84% 30.41 in 6 mi NNE 2.2 mph - -   Clear
8:20 AM 66.2 °F 60.8 °F 83% 30.42 in 5.6 mi NNE 3.5 mph - N/A   Unknown
8:50 AM 66.2 °F 60.8 °F 83% 30.42 in - North 4.6 mph - N/A   Clear
9:20 AM 68.0 °F 60.8 °F 78% 30.42 in - NNE 4.6 mph - N/A   Clear
9:50 AM 69.8 °F 60.8 °F 73% 30.42 in - NNE 6.9 mph - N/A   Clear
10:20 AM 71.6 °F 60.8 °F 69% 30.42 in - NNE 6.9 mph - N/A   Clear
10:50 AM 73.4 °F 62.6 °F 69% 30.42 in - NNE 9.2 mph - N/A   Clear
11:00 AM 72 °F 62 °F 62% 30.42 in 6 mi NNE 8.9 mph - -   Clear
11:20 AM 73.4 °F 60.8 °F 65% 30.42 in - NNE 10.4 mph - N/A   Clear
11:50 AM 75.2 °F 60.8 °F 61% 30.42 in - NNE 10.4 mph - N/A   Clear
12:20 PM 75.2 °F 62.6 °F 65% 30.42 in 6.2 mi NNE 11.5 mph - N/A   Partly Cloudy
12:50 PM 75.2 °F 60.8 °F 61% 30.42 in 6.2 mi NNE 10.4 mph - N/A   Partly Cloudy
1:20 PM 77.0 °F 60.8 °F 57% 30.42 in 6.2 mi NNE 12.7 mph - N/A   Partly Cloudy
1:50 PM 77.0 °F 59.0 °F 54% 30.42 in 6.2 mi NNE 12.7 mph - N/A   Partly Cloudy
2:00 PM 76 °F 60 °F 48% 30.42 in 15 mi NNE 13.4 mph - -   Scattered Clouds
2:20 PM 77.0 °F 59.0 °F 54% 30.42 in 6.2 mi NNE 10.4 mph - N/A   Partly Cloudy
2:50 PM 77.0 °F 59.0 °F 54% 30.42 in 6.2 mi NNE 11.5 mph - N/A   Partly Cloudy
3:20 PM 77.0 °F 59.0 °F 54% 30.42 in 6.2 mi NE 10.4 mph - N/A   Partly Cloudy
3:50 PM 78.8 °F 57.2 °F 47% 30.42 in 6.2 mi NNE 11.5 mph - N/A   Partly Cloudy
4:20 PM 77.0 °F 55.4 °F 47% 30.42 in - NE 10.4 mph - N/A   Clear
4:50 PM 78.8 °F 57.2 °F 47% 30.42 in - NE 10.4 mph - N/A   Clear
5:00 PM 79 °F 56 °F 35% 30.39 in 15 mi NE 8.9 mph - -   Clear
5:20 PM 78.8 °F 55.4 °F 44% 30.39 in - NNE 10.4 mph - N/A   Clear
5:50 PM 77.0 °F 55.4 °F 47% 30.39 in - NE 11.5 mph - N/A   Clear
6:20 PM 77.0 °F 53.6 °F 44% 30.39 in - NNE 11.5 mph - N/A   Clear
6:50 PM 77.0 °F 53.6 °F 44% 30.39 in - NNE 11.5 mph - N/A   Clear
7:20 PM 75.2 °F 53.6 °F 47% 30.39 in - NNE 9.2 mph - N/A   Clear
7:50 PM 75.2 °F 53.6 °F 47% 30.39 in - NNE 9.2 mph - N/A   Clear
8:00 PM 75 °F 54 °F 37% 30.38 in 19 mi NNE 8.9 mph - -   Clear
8:20 PM 73.4 °F 55.4 °F 53% 30.39 in - NNE 8.1 mph - N/A   Clear
8:50 PM 71.6 °F 55.4 °F 57% 30.39 in - NNE 6.9 mph - N/A   Clear
9:20 PM 69.8 °F 55.4 °F 60% 30.39 in - NNE 6.9 mph - N/A   Clear
9:50 PM 68.0 °F 53.6 °F 60% 30.39 in - NNE 5.8 mph - N/A   Clear
11:00 PM 65 °F 54 °F 59% 30.42 in 19 mi NNE 6.7 mph - -   Clear
11:20 PM 64.4 °F 53.6 °F 68% 30.42 in - NNE 6.9 mph - N/A   Clear
11:50 PM 62.6 °F 53.6 °F 72% 30.42 in - NNE 5.8 mph - N/A   Clear